<?xml version="1.0" encoding="UTF-8" standalone="no" ?>
<gpx xmlns="http://www.topografix.com/GPX/1/1" xmlns:xsi="http://www.w3.org/2001/XMLSchema-instance" xsi:schemaLocation="http://www.topografix.com/GPX/1/1 http://www.topografix.com/GPX/1/1/gpx.xsd" version="1.1" creator="VisuGPX - https://www.visugpx.com">
  <metadata>
    <name>Rossignol Run - semi marathon</name>
  </metadata>
  <trk>
    <name><![CDATA[Rossignol Run 2026 Semi-23049493]]></name>
    <trkseg>
      <trkpt lat="49.71862" lon="5.4833">
        <ele>335</ele>
        <time>2025-12-18T15:31:45Z</time>
      </trkpt>
      <trkpt lat="49.71905" lon="5.48368">
        <ele>335</ele>
        <time>2025-12-18T15:32:10Z</time>
      </trkpt>
      <trkpt lat="49.71932" lon="5.48389">
        <ele>335</ele>
        <time>2025-12-18T15:32:25Z</time>
      </trkpt>
      <trkpt lat="49.71955" lon="5.48408">
        <ele>336</ele>
        <time>2025-12-18T15:32:38Z</time>
      </trkpt>
      <trkpt lat="49.71959" lon="5.48396">
        <ele>336</ele>
        <time>2025-12-18T15:32:42Z</time>
      </trkpt>
      <trkpt lat="49.71959" lon="5.48396">
        <ele>336</ele>
        <time>2025-12-18T15:32:42Z</time>
      </trkpt>
      <trkpt lat="49.71995" lon="5.48309">
        <ele>335</ele>
        <time>2025-12-18T15:33:16Z</time>
      </trkpt>
      <trkpt lat="49.71997" lon="5.48298">
        <ele>335</ele>
        <time>2025-12-18T15:33:19Z</time>
      </trkpt>
      <trkpt lat="49.71997" lon="5.48286">
        <ele>336</ele>
        <time>2025-12-18T15:33:23Z</time>
      </trkpt>
      <trkpt lat="49.71992" lon="5.48244">
        <ele>336</ele>
        <time>2025-12-18T15:33:37Z</time>
      </trkpt>
      <trkpt lat="49.71989" lon="5.48204">
        <ele>337</ele>
        <time>2025-12-18T15:33:50Z</time>
      </trkpt>
      <trkpt lat="49.7199" lon="5.48167">
        <ele>338</ele>
        <time>2025-12-18T15:34:02Z</time>
      </trkpt>
      <trkpt lat="49.71993" lon="5.48145">
        <ele>338</ele>
        <time>2025-12-18T15:34:09Z</time>
      </trkpt>
      <trkpt lat="49.72001" lon="5.4811">
        <ele>339</ele>
        <time>2025-12-18T15:34:21Z</time>
      </trkpt>
      <trkpt lat="49.72009" lon="5.48084">
        <ele>339</ele>
        <time>2025-12-18T15:34:31Z</time>
      </trkpt>
      <trkpt lat="49.72017" lon="5.48067">
        <ele>340</ele>
        <time>2025-12-18T15:34:38Z</time>
      </trkpt>
      <trkpt lat="49.7202" lon="5.48055">
        <ele>340</ele>
        <time>2025-12-18T15:34:42Z</time>
      </trkpt>
      <trkpt lat="49.72034" lon="5.48036">
        <ele>341</ele>
        <time>2025-12-18T15:34:51Z</time>
      </trkpt>
      <trkpt lat="49.72034" lon="5.48036">
        <ele>341</ele>
        <time>2025-12-18T15:34:51Z</time>
      </trkpt>
      <trkpt lat="49.72034" lon="5.48036">
        <ele>341</ele>
        <time>2025-12-18T15:34:51Z</time>
      </trkpt>
      <trkpt lat="49.72035" lon="5.48034">
        <ele>341</ele>
        <time>2025-12-18T15:34:52Z</time>
      </trkpt>
      <trkpt lat="49.72042" lon="5.48027">
        <ele>341</ele>
        <time>2025-12-18T15:34:56Z</time>
      </trkpt>
      <trkpt lat="49.72045" lon="5.48044">
        <ele>341</ele>
        <time>2025-12-18T15:35:02Z</time>
      </trkpt>
      <trkpt lat="49.72053" lon="5.48058">
        <ele>342</ele>
        <time>2025-12-18T15:35:08Z</time>
      </trkpt>
      <trkpt lat="49.72082" lon="5.4808">
        <ele>343</ele>
        <time>2025-12-18T15:35:24Z</time>
      </trkpt>
      <trkpt lat="49.72097" lon="5.4804">
        <ele>344</ele>
        <time>2025-12-18T15:35:39Z</time>
      </trkpt>
      <trkpt lat="49.7211" lon="5.48019">
        <ele>344</ele>
        <time>2025-12-18T15:35:48Z</time>
      </trkpt>
      <trkpt lat="49.72119" lon="5.4801">
        <ele>344</ele>
        <time>2025-12-18T15:35:54Z</time>
      </trkpt>
      <trkpt lat="49.72159" lon="5.47991">
        <ele>346</ele>
        <time>2025-12-18T15:36:15Z</time>
      </trkpt>
      <trkpt lat="49.72177" lon="5.47984">
        <ele>346</ele>
        <time>2025-12-18T15:36:24Z</time>
      </trkpt>
      <trkpt lat="49.72196" lon="5.47972">
        <ele>347</ele>
        <time>2025-12-18T15:36:34Z</time>
      </trkpt>
      <trkpt lat="49.72216" lon="5.47958">
        <ele>347</ele>
        <time>2025-12-18T15:36:45Z</time>
      </trkpt>
      <trkpt lat="49.72224" lon="5.47947">
        <ele>347</ele>
        <time>2025-12-18T15:36:51Z</time>
      </trkpt>
      <trkpt lat="49.72251" lon="5.479">
        <ele>347</ele>
        <time>2025-12-18T15:37:11Z</time>
      </trkpt>
      <trkpt lat="49.7229" lon="5.47827">
        <ele>347</ele>
        <time>2025-12-18T15:37:41Z</time>
      </trkpt>
      <trkpt lat="49.72327" lon="5.4778">
        <ele>349</ele>
        <time>2025-12-18T15:38:05Z</time>
      </trkpt>
      <trkpt lat="49.72361" lon="5.47749">
        <ele>350</ele>
        <time>2025-12-18T15:38:25Z</time>
      </trkpt>
      <trkpt lat="49.7241" lon="5.47703">
        <ele>353</ele>
        <time>2025-12-18T15:38:54Z</time>
      </trkpt>
      <trkpt lat="49.72433" lon="5.47669">
        <ele>354</ele>
        <time>2025-12-18T15:39:10Z</time>
      </trkpt>
      <trkpt lat="49.72471" lon="5.47599">
        <ele>354</ele>
        <time>2025-12-18T15:39:39Z</time>
      </trkpt>
      <trkpt lat="49.72479" lon="5.47587">
        <ele>354</ele>
        <time>2025-12-18T15:39:45Z</time>
      </trkpt>
      <trkpt lat="49.7252" lon="5.47532">
        <ele>353</ele>
        <time>2025-12-18T15:40:12Z</time>
      </trkpt>
      <trkpt lat="49.72535" lon="5.47512">
        <ele>353</ele>
        <time>2025-12-18T15:40:22Z</time>
      </trkpt>
      <trkpt lat="49.72543" lon="5.4752">
        <ele>354</ele>
        <time>2025-12-18T15:40:27Z</time>
      </trkpt>
      <trkpt lat="49.72599" lon="5.47606">
        <ele>357</ele>
        <time>2025-12-18T15:41:06Z</time>
      </trkpt>
      <trkpt lat="49.7265" lon="5.47675">
        <ele>361</ele>
        <time>2025-12-18T15:41:40Z</time>
      </trkpt>
      <trkpt lat="49.72691" lon="5.4774">
        <ele>362</ele>
        <time>2025-12-18T15:42:10Z</time>
      </trkpt>
      <trkpt lat="49.72741" lon="5.4783">
        <ele>363</ele>
        <time>2025-12-18T15:42:48Z</time>
      </trkpt>
      <trkpt lat="49.72836" lon="5.47659">
        <ele>374</ele>
        <time>2025-12-18T15:44:01Z</time>
      </trkpt>
      <trkpt lat="49.72848" lon="5.47636">
        <ele>374</ele>
        <time>2025-12-18T15:44:10Z</time>
      </trkpt>
      <trkpt lat="49.72876" lon="5.47589">
        <ele>377</ele>
        <time>2025-12-18T15:44:31Z</time>
      </trkpt>
      <trkpt lat="49.72879" lon="5.47584">
        <ele>377</ele>
        <time>2025-12-18T15:44:33Z</time>
      </trkpt>
      <trkpt lat="49.72879" lon="5.47582">
        <ele>377</ele>
        <time>2025-12-18T15:44:34Z</time>
      </trkpt>
      <trkpt lat="49.72879" lon="5.47582">
        <ele>377</ele>
        <time>2025-12-18T15:44:34Z</time>
      </trkpt>
      <trkpt lat="49.7288" lon="5.47581">
        <ele>377</ele>
        <time>2025-12-18T15:44:35Z</time>
      </trkpt>
      <trkpt lat="49.72891" lon="5.47562">
        <ele>378</ele>
        <time>2025-12-18T15:44:43Z</time>
      </trkpt>
      <trkpt lat="49.7292" lon="5.47572">
        <ele>382</ele>
        <time>2025-12-18T15:44:58Z</time>
      </trkpt>
      <trkpt lat="49.72942" lon="5.47575">
        <ele>382</ele>
        <time>2025-12-18T15:45:09Z</time>
      </trkpt>
      <trkpt lat="49.72954" lon="5.47576">
        <ele>382</ele>
        <time>2025-12-18T15:45:15Z</time>
      </trkpt>
      <trkpt lat="49.72972" lon="5.47581">
        <ele>383</ele>
        <time>2025-12-18T15:45:24Z</time>
      </trkpt>
      <trkpt lat="49.7297" lon="5.47585">
        <ele>383</ele>
        <time>2025-12-18T15:45:26Z</time>
      </trkpt>
      <trkpt lat="49.7297" lon="5.47603">
        <ele>383</ele>
        <time>2025-12-18T15:45:31Z</time>
      </trkpt>
      <trkpt lat="49.72976" lon="5.47631">
        <ele>383</ele>
        <time>2025-12-18T15:45:41Z</time>
      </trkpt>
      <trkpt lat="49.72976" lon="5.47652">
        <ele>383</ele>
        <time>2025-12-18T15:45:48Z</time>
      </trkpt>
      <trkpt lat="49.72967" lon="5.47705">
        <ele>382</ele>
        <time>2025-12-18T15:46:05Z</time>
      </trkpt>
      <trkpt lat="49.72965" lon="5.47742">
        <ele>381</ele>
        <time>2025-12-18T15:46:17Z</time>
      </trkpt>
      <trkpt lat="49.72971" lon="5.47769">
        <ele>381</ele>
        <time>2025-12-18T15:46:27Z</time>
      </trkpt>
      <trkpt lat="49.72981" lon="5.47797">
        <ele>380</ele>
        <time>2025-12-18T15:46:37Z</time>
      </trkpt>
      <trkpt lat="49.73007" lon="5.4786">
        <ele>379</ele>
        <time>2025-12-18T15:47:01Z</time>
      </trkpt>
      <trkpt lat="49.73026" lon="5.47912">
        <ele>377</ele>
        <time>2025-12-18T15:47:21Z</time>
      </trkpt>
      <trkpt lat="49.73047" lon="5.48001">
        <ele>372</ele>
        <time>2025-12-18T15:47:51Z</time>
      </trkpt>
      <trkpt lat="49.7305" lon="5.48008">
        <ele>372</ele>
        <time>2025-12-18T15:47:54Z</time>
      </trkpt>
      <trkpt lat="49.73062" lon="5.48012">
        <ele>372</ele>
        <time>2025-12-18T15:48:00Z</time>
      </trkpt>
      <trkpt lat="49.73085" lon="5.48017">
        <ele>372</ele>
        <time>2025-12-18T15:48:12Z</time>
      </trkpt>
      <trkpt lat="49.7312" lon="5.48032">
        <ele>371</ele>
        <time>2025-12-18T15:48:30Z</time>
      </trkpt>
      <trkpt lat="49.73139" lon="5.48055">
        <ele>370</ele>
        <time>2025-12-18T15:48:42Z</time>
      </trkpt>
      <trkpt lat="49.73189" lon="5.48022">
        <ele>372</ele>
        <time>2025-12-18T15:49:09Z</time>
      </trkpt>
      <trkpt lat="49.73602" lon="5.47761">
        <ele>386</ele>
        <time>2025-12-18T15:52:52Z</time>
      </trkpt>
      <trkpt lat="49.73766" lon="5.47633">
        <ele>390</ele>
        <time>2025-12-18T15:54:24Z</time>
      </trkpt>
      <trkpt lat="49.73838" lon="5.47571">
        <ele>391</ele>
        <time>2025-12-18T15:55:05Z</time>
      </trkpt>
      <trkpt lat="49.73847" lon="5.47593">
        <ele>391</ele>
        <time>2025-12-18T15:55:14Z</time>
      </trkpt>
      <trkpt lat="49.7387" lon="5.47632">
        <ele>392</ele>
        <time>2025-12-18T15:55:31Z</time>
      </trkpt>
      <trkpt lat="49.73879" lon="5.47643">
        <ele>393</ele>
        <time>2025-12-18T15:55:37Z</time>
      </trkpt>
      <trkpt lat="49.73883" lon="5.47646">
        <ele>393</ele>
        <time>2025-12-18T15:55:39Z</time>
      </trkpt>
      <trkpt lat="49.73901" lon="5.47659">
        <ele>393</ele>
        <time>2025-12-18T15:55:49Z</time>
      </trkpt>
      <trkpt lat="49.73906" lon="5.47669">
        <ele>394</ele>
        <time>2025-12-18T15:55:53Z</time>
      </trkpt>
      <trkpt lat="49.73906" lon="5.47669">
        <ele>394</ele>
        <time>2025-12-18T15:55:53Z</time>
      </trkpt>
      <trkpt lat="49.7391" lon="5.4768">
        <ele>394</ele>
        <time>2025-12-18T15:55:57Z</time>
      </trkpt>
      <trkpt lat="49.73915" lon="5.47694">
        <ele>395</ele>
        <time>2025-12-18T15:56:02Z</time>
      </trkpt>
      <trkpt lat="49.73921" lon="5.47697">
        <ele>395</ele>
        <time>2025-12-18T15:56:05Z</time>
      </trkpt>
      <trkpt lat="49.73936" lon="5.47699">
        <ele>396</ele>
        <time>2025-12-18T15:56:13Z</time>
      </trkpt>
      <trkpt lat="49.73946" lon="5.47696">
        <ele>396</ele>
        <time>2025-12-18T15:56:18Z</time>
      </trkpt>
      <trkpt lat="49.73948" lon="5.47694">
        <ele>396</ele>
        <time>2025-12-18T15:56:19Z</time>
      </trkpt>
      <trkpt lat="49.73948" lon="5.47694">
        <ele>396</ele>
        <time>2025-12-18T15:56:19Z</time>
      </trkpt>
      <trkpt lat="49.73976" lon="5.47663">
        <ele>397</ele>
        <time>2025-12-18T15:56:36Z</time>
      </trkpt>
      <trkpt lat="49.73987" lon="5.47656">
        <ele>398</ele>
        <time>2025-12-18T15:56:42Z</time>
      </trkpt>
      <trkpt lat="49.74044" lon="5.47625">
        <ele>400</ele>
        <time>2025-12-18T15:57:13Z</time>
      </trkpt>
      <trkpt lat="49.74128" lon="5.47575">
        <ele>401</ele>
        <time>2025-12-18T15:57:58Z</time>
      </trkpt>
      <trkpt lat="49.74133" lon="5.4757">
        <ele>401</ele>
        <time>2025-12-18T15:58:01Z</time>
      </trkpt>
      <trkpt lat="49.74156" lon="5.47541">
        <ele>401</ele>
        <time>2025-12-18T15:58:15Z</time>
      </trkpt>
      <trkpt lat="49.74196" lon="5.47506">
        <ele>402</ele>
        <time>2025-12-18T15:58:38Z</time>
      </trkpt>
      <trkpt lat="49.74238" lon="5.47461">
        <ele>405</ele>
        <time>2025-12-18T15:59:04Z</time>
      </trkpt>
      <trkpt lat="49.74252" lon="5.4744">
        <ele>405</ele>
        <time>2025-12-18T15:59:14Z</time>
      </trkpt>
      <trkpt lat="49.74283" lon="5.47394">
        <ele>407</ele>
        <time>2025-12-18T15:59:35Z</time>
      </trkpt>
      <trkpt lat="49.7432" lon="5.47318">
        <ele>407</ele>
        <time>2025-12-18T16:00:06Z</time>
      </trkpt>
      <trkpt lat="49.74325" lon="5.47298">
        <ele>406</ele>
        <time>2025-12-18T16:00:13Z</time>
      </trkpt>
      <trkpt lat="49.74334" lon="5.47282">
        <ele>406</ele>
        <time>2025-12-18T16:00:20Z</time>
      </trkpt>
      <trkpt lat="49.74339" lon="5.47252">
        <ele>405</ele>
        <time>2025-12-18T16:00:30Z</time>
      </trkpt>
      <trkpt lat="49.74346" lon="5.47245">
        <ele>406</ele>
        <time>2025-12-18T16:00:34Z</time>
      </trkpt>
      <trkpt lat="49.74359" lon="5.47255">
        <ele>407</ele>
        <time>2025-12-18T16:00:41Z</time>
      </trkpt>
      <trkpt lat="49.74373" lon="5.47256">
        <ele>407</ele>
        <time>2025-12-18T16:00:48Z</time>
      </trkpt>
      <trkpt lat="49.74382" lon="5.47244">
        <ele>408</ele>
        <time>2025-12-18T16:00:54Z</time>
      </trkpt>
      <trkpt lat="49.74392" lon="5.47242">
        <ele>408</ele>
        <time>2025-12-18T16:00:59Z</time>
      </trkpt>
      <trkpt lat="49.74403" lon="5.47244">
        <ele>409</ele>
        <time>2025-12-18T16:01:05Z</time>
      </trkpt>
      <trkpt lat="49.74439" lon="5.4723">
        <ele>411</ele>
        <time>2025-12-18T16:01:23Z</time>
      </trkpt>
      <trkpt lat="49.74578" lon="5.47149">
        <ele>418</ele>
        <time>2025-12-18T16:02:38Z</time>
      </trkpt>
      <trkpt lat="49.74603" lon="5.47148">
        <ele>419</ele>
        <time>2025-12-18T16:02:50Z</time>
      </trkpt>
      <trkpt lat="49.74638" lon="5.47124">
        <ele>420</ele>
        <time>2025-12-18T16:03:09Z</time>
      </trkpt>
      <trkpt lat="49.74656" lon="5.47102">
        <ele>420</ele>
        <time>2025-12-18T16:03:21Z</time>
      </trkpt>
      <trkpt lat="49.7467" lon="5.47084">
        <ele>420</ele>
        <time>2025-12-18T16:03:30Z</time>
      </trkpt>
      <trkpt lat="49.74793" lon="5.46966">
        <ele>432</ele>
        <time>2025-12-18T16:04:42Z</time>
      </trkpt>
      <trkpt lat="49.74802" lon="5.46939">
        <ele>432</ele>
        <time>2025-12-18T16:04:52Z</time>
      </trkpt>
      <trkpt lat="49.748" lon="5.46907">
        <ele>433</ele>
        <time>2025-12-18T16:05:03Z</time>
      </trkpt>
      <trkpt lat="49.7481" lon="5.46858">
        <ele>433</ele>
        <time>2025-12-18T16:05:19Z</time>
      </trkpt>
      <trkpt lat="49.74809" lon="5.46831">
        <ele>433</ele>
        <time>2025-12-18T16:05:28Z</time>
      </trkpt>
      <trkpt lat="49.74812" lon="5.46803">
        <ele>432</ele>
        <time>2025-12-18T16:05:37Z</time>
      </trkpt>
      <trkpt lat="49.74829" lon="5.46763">
        <ele>430</ele>
        <time>2025-12-18T16:05:53Z</time>
      </trkpt>
      <trkpt lat="49.74842" lon="5.46702">
        <ele>429</ele>
        <time>2025-12-18T16:06:13Z</time>
      </trkpt>
      <trkpt lat="49.74841" lon="5.46688">
        <ele>429</ele>
        <time>2025-12-18T16:06:18Z</time>
      </trkpt>
      <trkpt lat="49.74836" lon="5.46672">
        <ele>429</ele>
        <time>2025-12-18T16:06:24Z</time>
      </trkpt>
      <trkpt lat="49.74829" lon="5.4666">
        <ele>429</ele>
        <time>2025-12-18T16:06:29Z</time>
      </trkpt>
      <trkpt lat="49.74821" lon="5.4665">
        <ele>430</ele>
        <time>2025-12-18T16:06:34Z</time>
      </trkpt>
      <trkpt lat="49.7479" lon="5.46611">
        <ele>432</ele>
        <time>2025-12-18T16:06:54Z</time>
      </trkpt>
      <trkpt lat="49.74765" lon="5.46552">
        <ele>433</ele>
        <time>2025-12-18T16:07:17Z</time>
      </trkpt>
      <trkpt lat="49.74742" lon="5.46525">
        <ele>435</ele>
        <time>2025-12-18T16:07:31Z</time>
      </trkpt>
      <trkpt lat="49.74721" lon="5.46485">
        <ele>438</ele>
        <time>2025-12-18T16:07:48Z</time>
      </trkpt>
      <trkpt lat="49.74703" lon="5.46442">
        <ele>440</ele>
        <time>2025-12-18T16:08:05Z</time>
      </trkpt>
      <trkpt lat="49.74696" lon="5.46417">
        <ele>441</ele>
        <time>2025-12-18T16:08:13Z</time>
      </trkpt>
      <trkpt lat="49.74684" lon="5.46394">
        <ele>443</ele>
        <time>2025-12-18T16:08:23Z</time>
      </trkpt>
      <trkpt lat="49.74679" lon="5.46376">
        <ele>443</ele>
        <time>2025-12-18T16:08:29Z</time>
      </trkpt>
      <trkpt lat="49.74684" lon="5.46326">
        <ele>444</ele>
        <time>2025-12-18T16:08:46Z</time>
      </trkpt>
      <trkpt lat="49.74686" lon="5.46286">
        <ele>444</ele>
        <time>2025-12-18T16:08:59Z</time>
      </trkpt>
      <trkpt lat="49.74682" lon="5.46243">
        <ele>446</ele>
        <time>2025-12-18T16:09:13Z</time>
      </trkpt>
      <trkpt lat="49.74679" lon="5.46191">
        <ele>449</ele>
        <time>2025-12-18T16:09:30Z</time>
      </trkpt>
      <trkpt lat="49.74676" lon="5.4617">
        <ele>450</ele>
        <time>2025-12-18T16:09:37Z</time>
      </trkpt>
      <trkpt lat="49.74674" lon="5.46157">
        <ele>451</ele>
        <time>2025-12-18T16:09:41Z</time>
      </trkpt>
      <trkpt lat="49.74661" lon="5.46126">
        <ele>452</ele>
        <time>2025-12-18T16:09:53Z</time>
      </trkpt>
      <trkpt lat="49.74646" lon="5.46114">
        <ele>453</ele>
        <time>2025-12-18T16:10:01Z</time>
      </trkpt>
      <trkpt lat="49.74622" lon="5.4611">
        <ele>454</ele>
        <time>2025-12-18T16:10:13Z</time>
      </trkpt>
      <trkpt lat="49.74626" lon="5.46046">
        <ele>453</ele>
        <time>2025-12-18T16:10:34Z</time>
      </trkpt>
      <trkpt lat="49.74624" lon="5.46028">
        <ele>453</ele>
        <time>2025-12-18T16:10:40Z</time>
      </trkpt>
      <trkpt lat="49.74626" lon="5.45997">
        <ele>453</ele>
        <time>2025-12-18T16:10:50Z</time>
      </trkpt>
      <trkpt lat="49.74618" lon="5.45968">
        <ele>453</ele>
        <time>2025-12-18T16:11:00Z</time>
      </trkpt>
      <trkpt lat="49.74613" lon="5.45936">
        <ele>454</ele>
        <time>2025-12-18T16:11:11Z</time>
      </trkpt>
      <trkpt lat="49.74615" lon="5.45902">
        <ele>455</ele>
        <time>2025-12-18T16:11:22Z</time>
      </trkpt>
      <trkpt lat="49.74603" lon="5.45848">
        <ele>455</ele>
        <time>2025-12-18T16:11:40Z</time>
      </trkpt>
      <trkpt lat="49.7469" lon="5.45898">
        <ele>457</ele>
        <time>2025-12-18T16:12:27Z</time>
      </trkpt>
      <trkpt lat="49.74852" lon="5.45981">
        <ele>450</ele>
        <time>2025-12-18T16:13:52Z</time>
      </trkpt>
      <trkpt lat="49.75392" lon="5.46256">
        <ele>426</ele>
        <time>2025-12-18T16:18:37Z</time>
      </trkpt>
      <trkpt lat="49.75578" lon="5.46105">
        <ele>428</ele>
        <time>2025-12-18T16:20:22Z</time>
      </trkpt>
      <trkpt lat="49.75856" lon="5.45891">
        <ele>411</ele>
        <time>2025-12-18T16:22:57Z</time>
      </trkpt>
      <trkpt lat="49.75878" lon="5.45873">
        <ele>408</ele>
        <time>2025-12-18T16:23:10Z</time>
      </trkpt>
      <trkpt lat="49.75892" lon="5.45856">
        <ele>405</ele>
        <time>2025-12-18T16:23:19Z</time>
      </trkpt>
      <trkpt lat="49.75899" lon="5.45841">
        <ele>403</ele>
        <time>2025-12-18T16:23:25Z</time>
      </trkpt>
      <trkpt lat="49.75916" lon="5.45796">
        <ele>399</ele>
        <time>2025-12-18T16:23:41Z</time>
      </trkpt>
      <trkpt lat="49.75925" lon="5.45768">
        <ele>398</ele>
        <time>2025-12-18T16:23:52Z</time>
      </trkpt>
      <trkpt lat="49.7593" lon="5.45747">
        <ele>398</ele>
        <time>2025-12-18T16:23:59Z</time>
      </trkpt>
      <trkpt lat="49.75944" lon="5.45719">
        <ele>401</ele>
        <time>2025-12-18T16:24:10Z</time>
      </trkpt>
      <trkpt lat="49.75985" lon="5.45685">
        <ele>408</ele>
        <time>2025-12-18T16:24:34Z</time>
      </trkpt>
      <trkpt lat="49.76034" lon="5.45638">
        <ele>416</ele>
        <time>2025-12-18T16:25:02Z</time>
      </trkpt>
      <trkpt lat="49.76069" lon="5.45598">
        <ele>422</ele>
        <time>2025-12-18T16:25:24Z</time>
      </trkpt>
      <trkpt lat="49.76106" lon="5.45604">
        <ele>424</ele>
        <time>2025-12-18T16:25:43Z</time>
      </trkpt>
      <trkpt lat="49.76144" lon="5.45609">
        <ele>426</ele>
        <time>2025-12-18T16:26:02Z</time>
      </trkpt>
      <trkpt lat="49.76192" lon="5.45609">
        <ele>428</ele>
        <time>2025-12-18T16:26:26Z</time>
      </trkpt>
      <trkpt lat="49.76237" lon="5.45633">
        <ele>427</ele>
        <time>2025-12-18T16:26:50Z</time>
      </trkpt>
      <trkpt lat="49.76321" lon="5.45654">
        <ele>433</ele>
        <time>2025-12-18T16:27:32Z</time>
      </trkpt>
      <trkpt lat="49.76341" lon="5.45657">
        <ele>435</ele>
        <time>2025-12-18T16:27:42Z</time>
      </trkpt>
      <trkpt lat="49.7636" lon="5.45692">
        <ele>434</ele>
        <time>2025-12-18T16:27:57Z</time>
      </trkpt>
      <trkpt lat="49.76372" lon="5.4571">
        <ele>434</ele>
        <time>2025-12-18T16:28:05Z</time>
      </trkpt>
      <trkpt lat="49.76387" lon="5.45721">
        <ele>435</ele>
        <time>2025-12-18T16:28:14Z</time>
      </trkpt>
      <trkpt lat="49.76426" lon="5.45738">
        <ele>437</ele>
        <time>2025-12-18T16:28:34Z</time>
      </trkpt>
      <trkpt lat="49.76456" lon="5.45754">
        <ele>439</ele>
        <time>2025-12-18T16:28:50Z</time>
      </trkpt>
      <trkpt lat="49.76505" lon="5.45768">
        <ele>442</ele>
        <time>2025-12-18T16:29:15Z</time>
      </trkpt>
      <trkpt lat="49.76549" lon="5.45752">
        <ele>443</ele>
        <time>2025-12-18T16:29:37Z</time>
      </trkpt>
      <trkpt lat="49.76638" lon="5.45745">
        <ele>442</ele>
        <time>2025-12-18T16:30:22Z</time>
      </trkpt>
      <trkpt lat="49.7667" lon="5.45733">
        <ele>440</ele>
        <time>2025-12-18T16:30:39Z</time>
      </trkpt>
      <trkpt lat="49.76701" lon="5.45697">
        <ele>439</ele>
        <time>2025-12-18T16:30:58Z</time>
      </trkpt>
      <trkpt lat="49.76737" lon="5.45674">
        <ele>438</ele>
        <time>2025-12-18T16:31:17Z</time>
      </trkpt>
      <trkpt lat="49.76791" lon="5.45662">
        <ele>435</ele>
        <time>2025-12-18T16:31:45Z</time>
      </trkpt>
      <trkpt lat="49.76853" lon="5.45654">
        <ele>434</ele>
        <time>2025-12-18T16:32:16Z</time>
      </trkpt>
      <trkpt lat="49.76891" lon="5.45636">
        <ele>436</ele>
        <time>2025-12-18T16:32:36Z</time>
      </trkpt>
      <trkpt lat="49.76915" lon="5.45604">
        <ele>436</ele>
        <time>2025-12-18T16:32:52Z</time>
      </trkpt>
      <trkpt lat="49.76925" lon="5.45591">
        <ele>437</ele>
        <time>2025-12-18T16:32:58Z</time>
      </trkpt>
      <trkpt lat="49.76963" lon="5.4552">
        <ele>440</ele>
        <time>2025-12-18T16:33:28Z</time>
      </trkpt>
      <trkpt lat="49.7698" lon="5.45448">
        <ele>445</ele>
        <time>2025-12-18T16:33:53Z</time>
      </trkpt>
      <trkpt lat="49.76987" lon="5.4542">
        <ele>447</ele>
        <time>2025-12-18T16:34:02Z</time>
      </trkpt>
      <trkpt lat="49.77032" lon="5.45304">
        <ele>454</ele>
        <time>2025-12-18T16:34:46Z</time>
      </trkpt>
      <trkpt lat="49.77054" lon="5.45268">
        <ele>454</ele>
        <time>2025-12-18T16:35:02Z</time>
      </trkpt>
      <trkpt lat="49.77079" lon="5.45215">
        <ele>455</ele>
        <time>2025-12-18T16:35:23Z</time>
      </trkpt>
      <trkpt lat="49.77079" lon="5.45178">
        <ele>455</ele>
        <time>2025-12-18T16:35:35Z</time>
      </trkpt>
      <trkpt lat="49.77088" lon="5.45145">
        <ele>455</ele>
        <time>2025-12-18T16:35:47Z</time>
      </trkpt>
      <trkpt lat="49.7711" lon="5.45114">
        <ele>454</ele>
        <time>2025-12-18T16:36:02Z</time>
      </trkpt>
      <trkpt lat="49.77124" lon="5.45088">
        <ele>454</ele>
        <time>2025-12-18T16:36:13Z</time>
      </trkpt>
      <trkpt lat="49.77145" lon="5.45068">
        <ele>452</ele>
        <time>2025-12-18T16:36:25Z</time>
      </trkpt>
      <trkpt lat="49.77165" lon="5.45058">
        <ele>451</ele>
        <time>2025-12-18T16:36:36Z</time>
      </trkpt>
      <trkpt lat="49.77174" lon="5.45048">
        <ele>451</ele>
        <time>2025-12-18T16:36:41Z</time>
      </trkpt>
      <trkpt lat="49.77181" lon="5.45047">
        <ele>450</ele>
        <time>2025-12-18T16:36:45Z</time>
      </trkpt>
      <trkpt lat="49.77188" lon="5.45052">
        <ele>450</ele>
        <time>2025-12-18T16:36:49Z</time>
      </trkpt>
      <trkpt lat="49.772" lon="5.45064">
        <ele>451</ele>
        <time>2025-12-18T16:36:56Z</time>
      </trkpt>
      <trkpt lat="49.77204" lon="5.45066">
        <ele>450</ele>
        <time>2025-12-18T16:36:58Z</time>
      </trkpt>
      <trkpt lat="49.77209" lon="5.45064">
        <ele>450</ele>
        <time>2025-12-18T16:37:00Z</time>
      </trkpt>
      <trkpt lat="49.77213" lon="5.45061">
        <ele>450</ele>
        <time>2025-12-18T16:37:03Z</time>
      </trkpt>
      <trkpt lat="49.77221" lon="5.45049">
        <ele>449</ele>
        <time>2025-12-18T16:37:08Z</time>
      </trkpt>
      <trkpt lat="49.7724" lon="5.45037">
        <ele>449</ele>
        <time>2025-12-18T16:37:18Z</time>
      </trkpt>
      <trkpt lat="49.77254" lon="5.4502">
        <ele>448</ele>
        <time>2025-12-18T16:37:27Z</time>
      </trkpt>
      <trkpt lat="49.77261" lon="5.45001">
        <ele>447</ele>
        <time>2025-12-18T16:37:34Z</time>
      </trkpt>
      <trkpt lat="49.77266" lon="5.4499">
        <ele>447</ele>
        <time>2025-12-18T16:37:39Z</time>
      </trkpt>
      <trkpt lat="49.7727" lon="5.44988">
        <ele>447</ele>
        <time>2025-12-18T16:37:41Z</time>
      </trkpt>
      <trkpt lat="49.77276" lon="5.44989">
        <ele>447</ele>
        <time>2025-12-18T16:37:44Z</time>
      </trkpt>
      <trkpt lat="49.77285" lon="5.44981">
        <ele>447</ele>
        <time>2025-12-18T16:37:49Z</time>
      </trkpt>
      <trkpt lat="49.773" lon="5.44944">
        <ele>447</ele>
        <time>2025-12-18T16:38:03Z</time>
      </trkpt>
      <trkpt lat="49.77304" lon="5.44936">
        <ele>446</ele>
        <time>2025-12-18T16:38:06Z</time>
      </trkpt>
      <trkpt lat="49.77318" lon="5.44926">
        <ele>447</ele>
        <time>2025-12-18T16:38:14Z</time>
      </trkpt>
      <trkpt lat="49.77332" lon="5.44914">
        <ele>447</ele>
        <time>2025-12-18T16:38:22Z</time>
      </trkpt>
      <trkpt lat="49.7734" lon="5.44898">
        <ele>446</ele>
        <time>2025-12-18T16:38:29Z</time>
      </trkpt>
      <trkpt lat="49.7735" lon="5.44874">
        <ele>446</ele>
        <time>2025-12-18T16:38:38Z</time>
      </trkpt>
      <trkpt lat="49.77356" lon="5.44863">
        <ele>446</ele>
        <time>2025-12-18T16:38:43Z</time>
      </trkpt>
      <trkpt lat="49.77368" lon="5.44854">
        <ele>445</ele>
        <time>2025-12-18T16:38:49Z</time>
      </trkpt>
      <trkpt lat="49.77401" lon="5.44829">
        <ele>446</ele>
        <time>2025-12-18T16:39:08Z</time>
      </trkpt>
      <trkpt lat="49.77433" lon="5.44836">
        <ele>445</ele>
        <time>2025-12-18T16:39:24Z</time>
      </trkpt>
      <trkpt lat="49.77454" lon="5.44848">
        <ele>445</ele>
        <time>2025-12-18T16:39:35Z</time>
      </trkpt>
      <trkpt lat="49.77462" lon="5.4485">
        <ele>444</ele>
        <time>2025-12-18T16:39:39Z</time>
      </trkpt>
      <trkpt lat="49.77467" lon="5.44848">
        <ele>444</ele>
        <time>2025-12-18T16:39:42Z</time>
      </trkpt>
      <trkpt lat="49.77476" lon="5.44848">
        <ele>444</ele>
        <time>2025-12-18T16:39:46Z</time>
      </trkpt>
      <trkpt lat="49.77484" lon="5.44845">
        <ele>443</ele>
        <time>2025-12-18T16:39:50Z</time>
      </trkpt>
      <trkpt lat="49.7749" lon="5.44838">
        <ele>443</ele>
        <time>2025-12-18T16:39:54Z</time>
      </trkpt>
      <trkpt lat="49.77497" lon="5.44827">
        <ele>442</ele>
        <time>2025-12-18T16:39:59Z</time>
      </trkpt>
      <trkpt lat="49.77499" lon="5.44815">
        <ele>441</ele>
        <time>2025-12-18T16:40:03Z</time>
      </trkpt>
      <trkpt lat="49.77542" lon="5.44788">
        <ele>439</ele>
        <time>2025-12-18T16:40:26Z</time>
      </trkpt>
      <trkpt lat="49.77557" lon="5.44775">
        <ele>439</ele>
        <time>2025-12-18T16:40:35Z</time>
      </trkpt>
      <trkpt lat="49.77563" lon="5.44762">
        <ele>438</ele>
        <time>2025-12-18T16:40:40Z</time>
      </trkpt>
      <trkpt lat="49.77565" lon="5.44747">
        <ele>438</ele>
        <time>2025-12-18T16:40:45Z</time>
      </trkpt>
      <trkpt lat="49.77562" lon="5.44662">
        <ele>436</ele>
        <time>2025-12-18T16:41:12Z</time>
      </trkpt>
      <trkpt lat="49.77572" lon="5.44567">
        <ele>436</ele>
        <time>2025-12-18T16:41:44Z</time>
      </trkpt>
      <trkpt lat="49.77574" lon="5.44521">
        <ele>433</ele>
        <time>2025-12-18T16:41:58Z</time>
      </trkpt>
      <trkpt lat="49.77564" lon="5.4446">
        <ele>431</ele>
        <time>2025-12-18T16:42:19Z</time>
      </trkpt>
      <trkpt lat="49.7756" lon="5.4443">
        <ele>430</ele>
        <time>2025-12-18T16:42:29Z</time>
      </trkpt>
      <trkpt lat="49.77559" lon="5.4437">
        <ele>427</ele>
        <time>2025-12-18T16:42:48Z</time>
      </trkpt>
      <trkpt lat="49.77565" lon="5.44317">
        <ele>424</ele>
        <time>2025-12-18T16:43:06Z</time>
      </trkpt>
      <trkpt lat="49.77573" lon="5.44169">
        <ele>411</ele>
        <time>2025-12-18T16:43:53Z</time>
      </trkpt>
      <trkpt lat="49.7752" lon="5.44139">
        <ele>409</ele>
        <time>2025-12-18T16:44:22Z</time>
      </trkpt>
      <trkpt lat="49.77481" lon="5.44123">
        <ele>409</ele>
        <time>2025-12-18T16:44:42Z</time>
      </trkpt>
      <trkpt lat="49.77476" lon="5.44119">
        <ele>410</ele>
        <time>2025-12-18T16:44:45Z</time>
      </trkpt>
      <trkpt lat="49.77473" lon="5.44112">
        <ele>410</ele>
        <time>2025-12-18T16:44:47Z</time>
      </trkpt>
      <trkpt lat="49.7745" lon="5.43938">
        <ele>416</ele>
        <time>2025-12-18T16:45:45Z</time>
      </trkpt>
      <trkpt lat="49.77448" lon="5.43913">
        <ele>417</ele>
        <time>2025-12-18T16:45:53Z</time>
      </trkpt>
      <trkpt lat="49.7745" lon="5.43889">
        <ele>418</ele>
        <time>2025-12-18T16:46:01Z</time>
      </trkpt>
      <trkpt lat="49.7748" lon="5.43723">
        <ele>417</ele>
        <time>2025-12-18T16:46:57Z</time>
      </trkpt>
      <trkpt lat="49.77499" lon="5.4363">
        <ele>413</ele>
        <time>2025-12-18T16:47:28Z</time>
      </trkpt>
      <trkpt lat="49.77517" lon="5.43538">
        <ele>405</ele>
        <time>2025-12-18T16:47:59Z</time>
      </trkpt>
      <trkpt lat="49.77517" lon="5.43499">
        <ele>401</ele>
        <time>2025-12-18T16:48:12Z</time>
      </trkpt>
      <trkpt lat="49.77508" lon="5.43333">
        <ele>399</ele>
        <time>2025-12-18T16:49:06Z</time>
      </trkpt>
      <trkpt lat="49.77502" lon="5.4329">
        <ele>404</ele>
        <time>2025-12-18T16:49:20Z</time>
      </trkpt>
      <trkpt lat="49.77483" lon="5.43193">
        <ele>409</ele>
        <time>2025-12-18T16:49:53Z</time>
      </trkpt>
      <trkpt lat="49.77442" lon="5.43001">
        <ele>415</ele>
        <time>2025-12-18T16:50:58Z</time>
      </trkpt>
      <trkpt lat="49.77433" lon="5.42973">
        <ele>414</ele>
        <time>2025-12-18T16:51:08Z</time>
      </trkpt>
      <trkpt lat="49.77396" lon="5.42788">
        <ele>413</ele>
        <time>2025-12-18T16:52:11Z</time>
      </trkpt>
      <trkpt lat="49.77388" lon="5.42736">
        <ele>417</ele>
        <time>2025-12-18T16:52:28Z</time>
      </trkpt>
      <trkpt lat="49.77378" lon="5.4267">
        <ele>419</ele>
        <time>2025-12-18T16:52:50Z</time>
      </trkpt>
      <trkpt lat="49.77362" lon="5.42598">
        <ele>421</ele>
        <time>2025-12-18T16:53:14Z</time>
      </trkpt>
      <trkpt lat="49.77344" lon="5.42511">
        <ele>423</ele>
        <time>2025-12-18T16:53:44Z</time>
      </trkpt>
      <trkpt lat="49.77322" lon="5.42442">
        <ele>426</ele>
        <time>2025-12-18T16:54:09Z</time>
      </trkpt>
      <trkpt lat="49.77312" lon="5.42415">
        <ele>427</ele>
        <time>2025-12-18T16:54:19Z</time>
      </trkpt>
      <trkpt lat="49.77309" lon="5.42404">
        <ele>427</ele>
        <time>2025-12-18T16:54:23Z</time>
      </trkpt>
      <trkpt lat="49.77289" lon="5.42303">
        <ele>428</ele>
        <time>2025-12-18T16:54:57Z</time>
      </trkpt>
      <trkpt lat="49.77266" lon="5.42176">
        <ele>425</ele>
        <time>2025-12-18T16:55:39Z</time>
      </trkpt>
      <trkpt lat="49.77246" lon="5.4207">
        <ele>423</ele>
        <time>2025-12-18T16:56:15Z</time>
      </trkpt>
      <trkpt lat="49.77197" lon="5.4187">
        <ele>422</ele>
        <time>2025-12-18T16:57:24Z</time>
      </trkpt>
      <trkpt lat="49.77192" lon="5.41836">
        <ele>421</ele>
        <time>2025-12-18T16:57:36Z</time>
      </trkpt>
      <trkpt lat="49.77184" lon="5.41797">
        <ele>420</ele>
        <time>2025-12-18T16:57:49Z</time>
      </trkpt>
      <trkpt lat="49.77177" lon="5.4178">
        <ele>419</ele>
        <time>2025-12-18T16:57:55Z</time>
      </trkpt>
      <trkpt lat="49.77167" lon="5.41759">
        <ele>418</ele>
        <time>2025-12-18T16:58:04Z</time>
      </trkpt>
      <trkpt lat="49.77156" lon="5.41745">
        <ele>416</ele>
        <time>2025-12-18T16:58:11Z</time>
      </trkpt>
      <trkpt lat="49.77138" lon="5.41726">
        <ele>414</ele>
        <time>2025-12-18T16:58:22Z</time>
      </trkpt>
      <trkpt lat="49.77122" lon="5.41705">
        <ele>412</ele>
        <time>2025-12-18T16:58:32Z</time>
      </trkpt>
      <trkpt lat="49.77062" lon="5.41592">
        <ele>406</ele>
        <time>2025-12-18T16:59:20Z</time>
      </trkpt>
      <trkpt lat="49.77054" lon="5.41575">
        <ele>404</ele>
        <time>2025-12-18T16:59:26Z</time>
      </trkpt>
      <trkpt lat="49.77046" lon="5.41566">
        <ele>403</ele>
        <time>2025-12-18T16:59:31Z</time>
      </trkpt>
      <trkpt lat="49.77046" lon="5.41555">
        <ele>402</ele>
        <time>2025-12-18T16:59:35Z</time>
      </trkpt>
      <trkpt lat="49.77033" lon="5.41507">
        <ele>399</ele>
        <time>2025-12-18T16:59:52Z</time>
      </trkpt>
      <trkpt lat="49.77028" lon="5.41479">
        <ele>396</ele>
        <time>2025-12-18T17:00:01Z</time>
      </trkpt>
      <trkpt lat="49.77024" lon="5.41426">
        <ele>391</ele>
        <time>2025-12-18T17:00:18Z</time>
      </trkpt>
      <trkpt lat="49.77014" lon="5.41359">
        <ele>387</ele>
        <time>2025-12-18T17:00:41Z</time>
      </trkpt>
      <trkpt lat="49.77004" lon="5.4132">
        <ele>385</ele>
        <time>2025-12-18T17:00:54Z</time>
      </trkpt>
      <trkpt lat="49.76966" lon="5.41199">
        <ele>381</ele>
        <time>2025-12-18T17:01:38Z</time>
      </trkpt>
      <trkpt lat="49.76941" lon="5.4111">
        <ele>381</ele>
        <time>2025-12-18T17:02:09Z</time>
      </trkpt>
      <trkpt lat="49.76938" lon="5.41091">
        <ele>382</ele>
        <time>2025-12-18T17:02:15Z</time>
      </trkpt>
      <trkpt lat="49.76928" lon="5.41044">
        <ele>381</ele>
        <time>2025-12-18T17:02:31Z</time>
      </trkpt>
      <trkpt lat="49.76872" lon="5.41068">
        <ele>377</ele>
        <time>2025-12-18T17:03:00Z</time>
      </trkpt>
      <trkpt lat="49.76852" lon="5.41085">
        <ele>375</ele>
        <time>2025-12-18T17:03:12Z</time>
      </trkpt>
      <trkpt lat="49.76842" lon="5.41095">
        <ele>373</ele>
        <time>2025-12-18T17:03:18Z</time>
      </trkpt>
      <trkpt lat="49.76808" lon="5.41131">
        <ele>368</ele>
        <time>2025-12-18T17:03:38Z</time>
      </trkpt>
      <trkpt lat="49.76796" lon="5.41138">
        <ele>366</ele>
        <time>2025-12-18T17:03:45Z</time>
      </trkpt>
      <trkpt lat="49.7674" lon="5.4114">
        <ele>361</ele>
        <time>2025-12-18T17:04:13Z</time>
      </trkpt>
      <trkpt lat="49.76737" lon="5.41138">
        <ele>360</ele>
        <time>2025-12-18T17:04:14Z</time>
      </trkpt>
      <trkpt lat="49.76734" lon="5.41132">
        <ele>360</ele>
        <time>2025-12-18T17:04:17Z</time>
      </trkpt>
      <trkpt lat="49.76732" lon="5.41122">
        <ele>359</ele>
        <time>2025-12-18T17:04:20Z</time>
      </trkpt>
      <trkpt lat="49.76731" lon="5.41114">
        <ele>359</ele>
        <time>2025-12-18T17:04:23Z</time>
      </trkpt>
      <trkpt lat="49.76728" lon="5.4111">
        <ele>359</ele>
        <time>2025-12-18T17:04:25Z</time>
      </trkpt>
      <trkpt lat="49.76723" lon="5.41106">
        <ele>358</ele>
        <time>2025-12-18T17:04:28Z</time>
      </trkpt>
      <trkpt lat="49.76669" lon="5.41101">
        <ele>353</ele>
        <time>2025-12-18T17:04:55Z</time>
      </trkpt>
      <trkpt lat="49.76656" lon="5.41089">
        <ele>352</ele>
        <time>2025-12-18T17:05:02Z</time>
      </trkpt>
      <trkpt lat="49.76642" lon="5.41073">
        <ele>351</ele>
        <time>2025-12-18T17:05:11Z</time>
      </trkpt>
      <trkpt lat="49.76638" lon="5.41094">
        <ele>352</ele>
        <time>2025-12-18T17:05:18Z</time>
      </trkpt>
      <trkpt lat="49.76627" lon="5.41207">
        <ele>356</ele>
        <time>2025-12-18T17:05:55Z</time>
      </trkpt>
      <trkpt lat="49.76606" lon="5.41263">
        <ele>357</ele>
        <time>2025-12-18T17:06:16Z</time>
      </trkpt>
      <trkpt lat="49.766" lon="5.41273">
        <ele>357</ele>
        <time>2025-12-18T17:06:20Z</time>
      </trkpt>
      <trkpt lat="49.76589" lon="5.41296">
        <ele>357</ele>
        <time>2025-12-18T17:06:30Z</time>
      </trkpt>
      <trkpt lat="49.76579" lon="5.41333">
        <ele>357</ele>
        <time>2025-12-18T17:06:43Z</time>
      </trkpt>
      <trkpt lat="49.76563" lon="5.41453">
        <ele>356</ele>
        <time>2025-12-18T17:07:22Z</time>
      </trkpt>
      <trkpt lat="49.76567" lon="5.41531">
        <ele>356</ele>
        <time>2025-12-18T17:07:47Z</time>
      </trkpt>
      <trkpt lat="49.7656" lon="5.41556">
        <ele>356</ele>
        <time>2025-12-18T17:07:56Z</time>
      </trkpt>
      <trkpt lat="49.76549" lon="5.41467">
        <ele>356</ele>
        <time>2025-12-18T17:08:26Z</time>
      </trkpt>
      <trkpt lat="49.76547" lon="5.41456">
        <ele>356</ele>
        <time>2025-12-18T17:08:29Z</time>
      </trkpt>
      <trkpt lat="49.76487" lon="5.40991">
        <ele>352</ele>
        <time>2025-12-18T17:11:03Z</time>
      </trkpt>
      <trkpt lat="49.76482" lon="5.4094">
        <ele>354</ele>
        <time>2025-12-18T17:11:19Z</time>
      </trkpt>
      <trkpt lat="49.76479" lon="5.40873">
        <ele>355</ele>
        <time>2025-12-18T17:11:41Z</time>
      </trkpt>
      <trkpt lat="49.76479" lon="5.40851">
        <ele>355</ele>
        <time>2025-12-18T17:11:48Z</time>
      </trkpt>
      <trkpt lat="49.76408" lon="5.40823">
        <ele>363</ele>
        <time>2025-12-18T17:12:25Z</time>
      </trkpt>
      <trkpt lat="49.76399" lon="5.40822">
        <ele>364</ele>
        <time>2025-12-18T17:12:29Z</time>
      </trkpt>
      <trkpt lat="49.76396" lon="5.40823">
        <ele>364</ele>
        <time>2025-12-18T17:12:31Z</time>
      </trkpt>
      <trkpt lat="49.76394" lon="5.40827">
        <ele>364</ele>
        <time>2025-12-18T17:12:32Z</time>
      </trkpt>
      <trkpt lat="49.76366" lon="5.409">
        <ele>366</ele>
        <time>2025-12-18T17:13:00Z</time>
      </trkpt>
      <trkpt lat="49.76363" lon="5.40902">
        <ele>366</ele>
        <time>2025-12-18T17:13:01Z</time>
      </trkpt>
      <trkpt lat="49.76361" lon="5.40902">
        <ele>367</ele>
        <time>2025-12-18T17:13:02Z</time>
      </trkpt>
      <trkpt lat="49.76283" lon="5.40864">
        <ele>375</ele>
        <time>2025-12-18T17:13:43Z</time>
      </trkpt>
      <trkpt lat="49.76279" lon="5.40864">
        <ele>375</ele>
        <time>2025-12-18T17:13:45Z</time>
      </trkpt>
      <trkpt lat="49.76276" lon="5.40865">
        <ele>376</ele>
        <time>2025-12-18T17:13:47Z</time>
      </trkpt>
      <trkpt lat="49.76274" lon="5.4087">
        <ele>376</ele>
        <time>2025-12-18T17:13:49Z</time>
      </trkpt>
      <trkpt lat="49.76265" lon="5.40907">
        <ele>376</ele>
        <time>2025-12-18T17:14:02Z</time>
      </trkpt>
      <trkpt lat="49.76262" lon="5.40912">
        <ele>376</ele>
        <time>2025-12-18T17:14:04Z</time>
      </trkpt>
      <trkpt lat="49.76258" lon="5.40914">
        <ele>376</ele>
        <time>2025-12-18T17:14:06Z</time>
      </trkpt>
      <trkpt lat="49.76224" lon="5.40913">
        <ele>377</ele>
        <time>2025-12-18T17:14:23Z</time>
      </trkpt>
      <trkpt lat="49.76226" lon="5.41011">
        <ele>376</ele>
        <time>2025-12-18T17:14:55Z</time>
      </trkpt>
      <trkpt lat="49.76227" lon="5.41116">
        <ele>377</ele>
        <time>2025-12-18T17:15:29Z</time>
      </trkpt>
      <trkpt lat="49.76224" lon="5.41237">
        <ele>378</ele>
        <time>2025-12-18T17:16:08Z</time>
      </trkpt>
      <trkpt lat="49.76221" lon="5.41297">
        <ele>378</ele>
        <time>2025-12-18T17:16:27Z</time>
      </trkpt>
      <trkpt lat="49.76218" lon="5.41385">
        <ele>379</ele>
        <time>2025-12-18T17:16:56Z</time>
      </trkpt>
      <trkpt lat="49.76212" lon="5.41433">
        <ele>380</ele>
        <time>2025-12-18T17:17:11Z</time>
      </trkpt>
      <trkpt lat="49.76206" lon="5.41466">
        <ele>381</ele>
        <time>2025-12-18T17:17:23Z</time>
      </trkpt>
      <trkpt lat="49.76198" lon="5.41501">
        <ele>382</ele>
        <time>2025-12-18T17:17:35Z</time>
      </trkpt>
      <trkpt lat="49.7619" lon="5.41523">
        <ele>383</ele>
        <time>2025-12-18T17:17:43Z</time>
      </trkpt>
      <trkpt lat="49.76168" lon="5.41575">
        <ele>387</ele>
        <time>2025-12-18T17:18:03Z</time>
      </trkpt>
      <trkpt lat="49.76155" lon="5.41601">
        <ele>387</ele>
        <time>2025-12-18T17:18:13Z</time>
      </trkpt>
      <trkpt lat="49.76059" lon="5.4177">
        <ele>385</ele>
        <time>2025-12-18T17:19:26Z</time>
      </trkpt>
      <trkpt lat="49.76048" lon="5.41798">
        <ele>383</ele>
        <time>2025-12-18T17:19:37Z</time>
      </trkpt>
      <trkpt lat="49.76041" lon="5.41818">
        <ele>382</ele>
        <time>2025-12-18T17:19:44Z</time>
      </trkpt>
      <trkpt lat="49.76008" lon="5.41954">
        <ele>375</ele>
        <time>2025-12-18T17:20:31Z</time>
      </trkpt>
      <trkpt lat="49.76004" lon="5.42008">
        <ele>373</ele>
        <time>2025-12-18T17:20:49Z</time>
      </trkpt>
      <trkpt lat="49.75994" lon="5.42094">
        <ele>374</ele>
        <time>2025-12-18T17:21:17Z</time>
      </trkpt>
      <trkpt lat="49.7597" lon="5.42255">
        <ele>373</ele>
        <time>2025-12-18T17:22:10Z</time>
      </trkpt>
      <trkpt lat="49.75951" lon="5.42397">
        <ele>375</ele>
        <time>2025-12-18T17:22:57Z</time>
      </trkpt>
      <trkpt lat="49.75943" lon="5.42544">
        <ele>377</ele>
        <time>2025-12-18T17:23:45Z</time>
      </trkpt>
      <trkpt lat="49.75938" lon="5.42563">
        <ele>377</ele>
        <time>2025-12-18T17:23:52Z</time>
      </trkpt>
      <trkpt lat="49.75941" lon="5.4258">
        <ele>378</ele>
        <time>2025-12-18T17:23:57Z</time>
      </trkpt>
      <trkpt lat="49.75939" lon="5.4264">
        <ele>382</ele>
        <time>2025-12-18T17:24:17Z</time>
      </trkpt>
      <trkpt lat="49.75938" lon="5.42664">
        <ele>383</ele>
        <time>2025-12-18T17:24:24Z</time>
      </trkpt>
      <trkpt lat="49.75937" lon="5.42685">
        <ele>384</ele>
        <time>2025-12-18T17:24:31Z</time>
      </trkpt>
      <trkpt lat="49.75937" lon="5.42733">
        <ele>385</ele>
        <time>2025-12-18T17:24:47Z</time>
      </trkpt>
      <trkpt lat="49.7594" lon="5.42808">
        <ele>386</ele>
        <time>2025-12-18T17:25:11Z</time>
      </trkpt>
      <trkpt lat="49.75944" lon="5.42887">
        <ele>388</ele>
        <time>2025-12-18T17:25:37Z</time>
      </trkpt>
      <trkpt lat="49.75945" lon="5.42969">
        <ele>394</ele>
        <time>2025-12-18T17:26:03Z</time>
      </trkpt>
      <trkpt lat="49.75939" lon="5.43009">
        <ele>397</ele>
        <time>2025-12-18T17:26:16Z</time>
      </trkpt>
      <trkpt lat="49.75818" lon="5.43235">
        <ele>412</ele>
        <time>2025-12-18T17:27:51Z</time>
      </trkpt>
      <trkpt lat="49.75786" lon="5.43298">
        <ele>418</ele>
        <time>2025-12-18T17:28:17Z</time>
      </trkpt>
      <trkpt lat="49.75749" lon="5.43365">
        <ele>421</ele>
        <time>2025-12-18T17:28:46Z</time>
      </trkpt>
      <trkpt lat="49.7568" lon="5.43483">
        <ele>414</ele>
        <time>2025-12-18T17:29:37Z</time>
      </trkpt>
      <trkpt lat="49.75662" lon="5.43517">
        <ele>412</ele>
        <time>2025-12-18T17:29:51Z</time>
      </trkpt>
      <trkpt lat="49.75587" lon="5.43657">
        <ele>406</ele>
        <time>2025-12-18T17:30:50Z</time>
      </trkpt>
      <trkpt lat="49.75509" lon="5.43792">
        <ele>395</ele>
        <time>2025-12-18T17:31:49Z</time>
      </trkpt>
      <trkpt lat="49.75392" lon="5.44015">
        <ele>383</ele>
        <time>2025-12-18T17:33:22Z</time>
      </trkpt>
      <trkpt lat="49.75357" lon="5.44075">
        <ele>390</ele>
        <time>2025-12-18T17:33:48Z</time>
      </trkpt>
      <trkpt lat="49.7529" lon="5.44195">
        <ele>405</ele>
        <time>2025-12-18T17:34:39Z</time>
      </trkpt>
      <trkpt lat="49.75249" lon="5.4426">
        <ele>416</ele>
        <time>2025-12-18T17:35:08Z</time>
      </trkpt>
      <trkpt lat="49.75219" lon="5.4432">
        <ele>420</ele>
        <time>2025-12-18T17:35:33Z</time>
      </trkpt>
      <trkpt lat="49.7515" lon="5.44441">
        <ele>423</ele>
        <time>2025-12-18T17:36:25Z</time>
      </trkpt>
      <trkpt lat="49.75107" lon="5.44525">
        <ele>425</ele>
        <time>2025-12-18T17:37:00Z</time>
      </trkpt>
      <trkpt lat="49.74835" lon="5.45032">
        <ele>437</ele>
        <time>2025-12-18T17:40:33Z</time>
      </trkpt>
      <trkpt lat="49.74717" lon="5.45241">
        <ele>443</ele>
        <time>2025-12-18T17:42:03Z</time>
      </trkpt>
      <trkpt lat="49.74627" lon="5.45417">
        <ele>449</ele>
        <time>2025-12-18T17:43:15Z</time>
      </trkpt>
      <trkpt lat="49.74569" lon="5.45531">
        <ele>447</ele>
        <time>2025-12-18T17:44:02Z</time>
      </trkpt>
      <trkpt lat="49.74452" lon="5.45738">
        <ele>447</ele>
        <time>2025-12-18T17:45:31Z</time>
      </trkpt>
      <trkpt lat="49.74438" lon="5.4576">
        <ele>448</ele>
        <time>2025-12-18T17:45:41Z</time>
      </trkpt>
      <trkpt lat="49.74351" lon="5.45862">
        <ele>452</ele>
        <time>2025-12-18T17:46:36Z</time>
      </trkpt>
      <trkpt lat="49.74307" lon="5.45908">
        <ele>451</ele>
        <time>2025-12-18T17:47:02Z</time>
      </trkpt>
      <trkpt lat="49.74267" lon="5.45956">
        <ele>448</ele>
        <time>2025-12-18T17:47:28Z</time>
      </trkpt>
      <trkpt lat="49.74229" lon="5.45995">
        <ele>447</ele>
        <time>2025-12-18T17:47:50Z</time>
      </trkpt>
      <trkpt lat="49.74026" lon="5.46221">
        <ele>433</ele>
        <time>2025-12-18T17:49:55Z</time>
      </trkpt>
      <trkpt lat="49.73912" lon="5.46349">
        <ele>428</ele>
        <time>2025-12-18T17:51:06Z</time>
      </trkpt>
      <trkpt lat="49.73751" lon="5.46534">
        <ele>411</ele>
        <time>2025-12-18T17:52:46Z</time>
      </trkpt>
      <trkpt lat="49.7361" lon="5.46697">
        <ele>396</ele>
        <time>2025-12-18T17:54:14Z</time>
      </trkpt>
      <trkpt lat="49.73576" lon="5.46741">
        <ele>392</ele>
        <time>2025-12-18T17:54:37Z</time>
      </trkpt>
      <trkpt lat="49.73527" lon="5.46789">
        <ele>387</ele>
        <time>2025-12-18T17:55:06Z</time>
      </trkpt>
      <trkpt lat="49.73451" lon="5.46873">
        <ele>380</ele>
        <time>2025-12-18T17:55:52Z</time>
      </trkpt>
      <trkpt lat="49.73456" lon="5.46882">
        <ele>380</ele>
        <time>2025-12-18T17:55:56Z</time>
      </trkpt>
      <trkpt lat="49.73462" lon="5.46885">
        <ele>380</ele>
        <time>2025-12-18T17:55:59Z</time>
      </trkpt>
      <trkpt lat="49.73469" lon="5.46883">
        <ele>381</ele>
        <time>2025-12-18T17:56:03Z</time>
      </trkpt>
      <trkpt lat="49.73485" lon="5.4689">
        <ele>381</ele>
        <time>2025-12-18T17:56:11Z</time>
      </trkpt>
      <trkpt lat="49.73504" lon="5.46894">
        <ele>383</ele>
        <time>2025-12-18T17:56:21Z</time>
      </trkpt>
      <trkpt lat="49.73537" lon="5.46894">
        <ele>385</ele>
        <time>2025-12-18T17:56:37Z</time>
      </trkpt>
      <trkpt lat="49.73583" lon="5.4689">
        <ele>388</ele>
        <time>2025-12-18T17:57:00Z</time>
      </trkpt>
      <trkpt lat="49.73598" lon="5.4689">
        <ele>389</ele>
        <time>2025-12-18T17:57:08Z</time>
      </trkpt>
      <trkpt lat="49.73611" lon="5.46896">
        <ele>390</ele>
        <time>2025-12-18T17:57:15Z</time>
      </trkpt>
      <trkpt lat="49.7363" lon="5.4693">
        <ele>391</ele>
        <time>2025-12-18T17:57:29Z</time>
      </trkpt>
      <trkpt lat="49.73633" lon="5.46937">
        <ele>391</ele>
        <time>2025-12-18T17:57:32Z</time>
      </trkpt>
      <trkpt lat="49.73636" lon="5.46949">
        <ele>391</ele>
        <time>2025-12-18T17:57:36Z</time>
      </trkpt>
      <trkpt lat="49.73646" lon="5.46965">
        <ele>392</ele>
        <time>2025-12-18T17:57:43Z</time>
      </trkpt>
      <trkpt lat="49.73673" lon="5.46994">
        <ele>394</ele>
        <time>2025-12-18T17:58:00Z</time>
      </trkpt>
      <trkpt lat="49.73681" lon="5.47035">
        <ele>394</ele>
        <time>2025-12-18T17:58:14Z</time>
      </trkpt>
      <trkpt lat="49.73698" lon="5.47062">
        <ele>395</ele>
        <time>2025-12-18T17:58:26Z</time>
      </trkpt>
      <trkpt lat="49.7373" lon="5.47084">
        <ele>395</ele>
        <time>2025-12-18T17:58:43Z</time>
      </trkpt>
      <trkpt lat="49.73758" lon="5.47107">
        <ele>396</ele>
        <time>2025-12-18T17:58:59Z</time>
      </trkpt>
      <trkpt lat="49.73761" lon="5.47114">
        <ele>396</ele>
        <time>2025-12-18T17:59:02Z</time>
      </trkpt>
      <trkpt lat="49.73747" lon="5.47208">
        <ele>393</ele>
        <time>2025-12-18T17:59:33Z</time>
      </trkpt>
      <trkpt lat="49.73727" lon="5.47319">
        <ele>394</ele>
        <time>2025-12-18T18:00:10Z</time>
      </trkpt>
      <trkpt lat="49.73713" lon="5.47424">
        <ele>393</ele>
        <time>2025-12-18T18:00:45Z</time>
      </trkpt>
      <trkpt lat="49.73714" lon="5.47551">
        <ele>391</ele>
        <time>2025-12-18T18:01:26Z</time>
      </trkpt>
      <trkpt lat="49.73681" lon="5.47503">
        <ele>394</ele>
        <time>2025-12-18T18:01:49Z</time>
      </trkpt>
      <trkpt lat="49.73641" lon="5.47431">
        <ele>396</ele>
        <time>2025-12-18T18:02:19Z</time>
      </trkpt>
      <trkpt lat="49.73603" lon="5.47356">
        <ele>394</ele>
        <time>2025-12-18T18:02:50Z</time>
      </trkpt>
      <trkpt lat="49.73561" lon="5.47271">
        <ele>392</ele>
        <time>2025-12-18T18:03:25Z</time>
      </trkpt>
      <trkpt lat="49.73552" lon="5.47267">
        <ele>392</ele>
        <time>2025-12-18T18:03:30Z</time>
      </trkpt>
      <trkpt lat="49.73535" lon="5.47268">
        <ele>392</ele>
        <time>2025-12-18T18:03:38Z</time>
      </trkpt>
      <trkpt lat="49.73513" lon="5.47275">
        <ele>392</ele>
        <time>2025-12-18T18:03:49Z</time>
      </trkpt>
      <trkpt lat="49.73371" lon="5.47362">
        <ele>389</ele>
        <time>2025-12-18T18:05:06Z</time>
      </trkpt>
      <trkpt lat="49.73358" lon="5.47361">
        <ele>388</ele>
        <time>2025-12-18T18:05:12Z</time>
      </trkpt>
      <trkpt lat="49.7335" lon="5.47363">
        <ele>388</ele>
        <time>2025-12-18T18:05:16Z</time>
      </trkpt>
      <trkpt lat="49.73246" lon="5.47473">
        <ele>385</ele>
        <time>2025-12-18T18:06:19Z</time>
      </trkpt>
      <trkpt lat="49.73048" lon="5.47548">
        <ele>382</ele>
        <time>2025-12-18T18:08:01Z</time>
      </trkpt>
      <trkpt lat="49.72976" lon="5.47576">
        <ele>382</ele>
        <time>2025-12-18T18:08:39Z</time>
      </trkpt>
      <trkpt lat="49.72972" lon="5.47581">
        <ele>383</ele>
        <time>2025-12-18T18:08:41Z</time>
      </trkpt>
      <trkpt lat="49.72954" lon="5.47576">
        <ele>382</ele>
        <time>2025-12-18T18:08:50Z</time>
      </trkpt>
      <trkpt lat="49.72942" lon="5.47575">
        <ele>382</ele>
        <time>2025-12-18T18:08:56Z</time>
      </trkpt>
      <trkpt lat="49.7292" lon="5.47572">
        <ele>382</ele>
        <time>2025-12-18T18:09:07Z</time>
      </trkpt>
      <trkpt lat="49.72891" lon="5.47562">
        <ele>378</ele>
        <time>2025-12-18T18:09:22Z</time>
      </trkpt>
      <trkpt lat="49.7288" lon="5.47581">
        <ele>377</ele>
        <time>2025-12-18T18:09:30Z</time>
      </trkpt>
      <trkpt lat="49.72879" lon="5.47582">
        <ele>377</ele>
        <time>2025-12-18T18:09:31Z</time>
      </trkpt>
      <trkpt lat="49.72879" lon="5.47582">
        <ele>377</ele>
        <time>2025-12-18T18:09:31Z</time>
      </trkpt>
      <trkpt lat="49.72879" lon="5.47584">
        <ele>377</ele>
        <time>2025-12-18T18:09:32Z</time>
      </trkpt>
      <trkpt lat="49.72876" lon="5.47589">
        <ele>377</ele>
        <time>2025-12-18T18:09:34Z</time>
      </trkpt>
      <trkpt lat="49.72848" lon="5.47636">
        <ele>374</ele>
        <time>2025-12-18T18:09:55Z</time>
      </trkpt>
      <trkpt lat="49.72836" lon="5.47659">
        <ele>374</ele>
        <time>2025-12-18T18:10:04Z</time>
      </trkpt>
      <trkpt lat="49.72741" lon="5.4783">
        <ele>363</ele>
        <time>2025-12-18T18:11:17Z</time>
      </trkpt>
      <trkpt lat="49.72691" lon="5.4774">
        <ele>362</ele>
        <time>2025-12-18T18:11:55Z</time>
      </trkpt>
      <trkpt lat="49.7265" lon="5.47675">
        <ele>361</ele>
        <time>2025-12-18T18:12:25Z</time>
      </trkpt>
      <trkpt lat="49.72599" lon="5.47606">
        <ele>357</ele>
        <time>2025-12-18T18:12:59Z</time>
      </trkpt>
      <trkpt lat="49.72543" lon="5.4752">
        <ele>354</ele>
        <time>2025-12-18T18:13:38Z</time>
      </trkpt>
      <trkpt lat="49.72535" lon="5.47512">
        <ele>353</ele>
        <time>2025-12-18T18:13:43Z</time>
      </trkpt>
      <trkpt lat="49.72537" lon="5.47509">
        <ele>353</ele>
        <time>2025-12-18T18:13:44Z</time>
      </trkpt>
      <trkpt lat="49.72535" lon="5.47512">
        <ele>353</ele>
        <time>2025-12-18T18:13:46Z</time>
      </trkpt>
      <trkpt lat="49.72479" lon="5.47587">
        <ele>354</ele>
        <time>2025-12-18T18:14:23Z</time>
      </trkpt>
      <trkpt lat="49.72471" lon="5.47599">
        <ele>354</ele>
        <time>2025-12-18T18:14:28Z</time>
      </trkpt>
      <trkpt lat="49.72433" lon="5.47669">
        <ele>354</ele>
        <time>2025-12-18T18:14:58Z</time>
      </trkpt>
      <trkpt lat="49.7241" lon="5.47703">
        <ele>353</ele>
        <time>2025-12-18T18:15:14Z</time>
      </trkpt>
      <trkpt lat="49.72361" lon="5.47749">
        <ele>350</ele>
        <time>2025-12-18T18:15:43Z</time>
      </trkpt>
      <trkpt lat="49.72327" lon="5.4778">
        <ele>349</ele>
        <time>2025-12-18T18:16:02Z</time>
      </trkpt>
      <trkpt lat="49.7229" lon="5.47827">
        <ele>347</ele>
        <time>2025-12-18T18:16:26Z</time>
      </trkpt>
      <trkpt lat="49.72251" lon="5.479">
        <ele>347</ele>
        <time>2025-12-18T18:16:57Z</time>
      </trkpt>
      <trkpt lat="49.72224" lon="5.47947">
        <ele>347</ele>
        <time>2025-12-18T18:17:17Z</time>
      </trkpt>
      <trkpt lat="49.72216" lon="5.47958">
        <ele>347</ele>
        <time>2025-12-18T18:17:23Z</time>
      </trkpt>
      <trkpt lat="49.72196" lon="5.47972">
        <ele>347</ele>
        <time>2025-12-18T18:17:34Z</time>
      </trkpt>
      <trkpt lat="49.72177" lon="5.47984">
        <ele>346</ele>
        <time>2025-12-18T18:17:44Z</time>
      </trkpt>
      <trkpt lat="49.72159" lon="5.47991">
        <ele>346</ele>
        <time>2025-12-18T18:17:53Z</time>
      </trkpt>
      <trkpt lat="49.72119" lon="5.4801">
        <ele>344</ele>
        <time>2025-12-18T18:18:14Z</time>
      </trkpt>
      <trkpt lat="49.7211" lon="5.48019">
        <ele>344</ele>
        <time>2025-12-18T18:18:20Z</time>
      </trkpt>
      <trkpt lat="49.72097" lon="5.4804">
        <ele>344</ele>
        <time>2025-12-18T18:18:29Z</time>
      </trkpt>
      <trkpt lat="49.72082" lon="5.4808">
        <ele>343</ele>
        <time>2025-12-18T18:18:44Z</time>
      </trkpt>
      <trkpt lat="49.72053" lon="5.48058">
        <ele>342</ele>
        <time>2025-12-18T18:19:00Z</time>
      </trkpt>
      <trkpt lat="49.72045" lon="5.48044">
        <ele>341</ele>
        <time>2025-12-18T18:19:06Z</time>
      </trkpt>
      <trkpt lat="49.72042" lon="5.48027">
        <ele>341</ele>
        <time>2025-12-18T18:19:12Z</time>
      </trkpt>
      <trkpt lat="49.72035" lon="5.48034">
        <ele>341</ele>
        <time>2025-12-18T18:19:16Z</time>
      </trkpt>
      <trkpt lat="49.72042" lon="5.48027">
        <ele>341</ele>
        <time>2025-12-18T18:19:20Z</time>
      </trkpt>
      <trkpt lat="49.72042" lon="5.48026">
        <ele>341</ele>
        <time>2025-12-18T18:19:20Z</time>
      </trkpt>
      <trkpt lat="49.72042" lon="5.48027">
        <ele>341</ele>
        <time>2025-12-18T18:19:21Z</time>
      </trkpt>
      <trkpt lat="49.72034" lon="5.48036">
        <ele>341</ele>
        <time>2025-12-18T18:19:26Z</time>
      </trkpt>
      <trkpt lat="49.72034" lon="5.48036">
        <ele>341</ele>
        <time>2025-12-18T18:19:26Z</time>
      </trkpt>
      <trkpt lat="49.7202" lon="5.48055">
        <ele>340</ele>
        <time>2025-12-18T18:19:35Z</time>
      </trkpt>
      <trkpt lat="49.72017" lon="5.48067">
        <ele>340</ele>
        <time>2025-12-18T18:19:39Z</time>
      </trkpt>
      <trkpt lat="49.72009" lon="5.48084">
        <ele>339</ele>
        <time>2025-12-18T18:19:46Z</time>
      </trkpt>
      <trkpt lat="49.72001" lon="5.4811">
        <ele>339</ele>
        <time>2025-12-18T18:19:55Z</time>
      </trkpt>
      <trkpt lat="49.71993" lon="5.48145">
        <ele>338</ele>
        <time>2025-12-18T18:20:07Z</time>
      </trkpt>
      <trkpt lat="49.7199" lon="5.48167">
        <ele>338</ele>
        <time>2025-12-18T18:20:15Z</time>
      </trkpt>
      <trkpt lat="49.71989" lon="5.48204">
        <ele>337</ele>
        <time>2025-12-18T18:20:27Z</time>
      </trkpt>
      <trkpt lat="49.71992" lon="5.48244">
        <ele>336</ele>
        <time>2025-12-18T18:20:40Z</time>
      </trkpt>
      <trkpt lat="49.71997" lon="5.48286">
        <ele>336</ele>
        <time>2025-12-18T18:20:53Z</time>
      </trkpt>
      <trkpt lat="49.71997" lon="5.48298">
        <ele>335</ele>
        <time>2025-12-18T18:20:57Z</time>
      </trkpt>
      <trkpt lat="49.71995" lon="5.48309">
        <ele>335</ele>
        <time>2025-12-18T18:21:01Z</time>
      </trkpt>
      <trkpt lat="49.71959" lon="5.48396">
        <ele>336</ele>
        <time>2025-12-18T18:21:34Z</time>
      </trkpt>
      <trkpt lat="49.71959" lon="5.48396">
        <ele>336</ele>
        <time>2025-12-18T18:21:34Z</time>
      </trkpt>
      <trkpt lat="49.71955" lon="5.48408">
        <ele>336</ele>
        <time>2025-12-18T18:21:39Z</time>
      </trkpt>
      <trkpt lat="49.71932" lon="5.48389">
        <ele>335</ele>
        <time>2025-12-18T18:21:52Z</time>
      </trkpt>
      <trkpt lat="49.71905" lon="5.48368">
        <ele>335</ele>
        <time>2025-12-18T18:22:07Z</time>
      </trkpt>
      <trkpt lat="49.71862" lon="5.4833">
        <ele>335</ele>
        <time>2025-12-18T18:22:32Z</time>
      </trkpt>
      <trkpt lat="49.71854" lon="5.48324">
        <ele>336</ele>
        <time>2025-12-18T18:22:36Z</time>
      </trkpt>
    </trkseg>
  </trk>
</gpx>